Weather History for Fort Meade, MD

Change the Weather History Date:

Tuesday, February 12, 2013

  Actual Average (KBWI) Record (KBWI)
Temperature  
Mean Temperature 44 °F 35 °F  
Max Temperature 55 °F 44 °F 73 °F (1999)
Min Temperature 32 °F 26 °F 5 °F (1899)
Degree Days  
Heating Degree Days 21 30  
Month to date heating degree days 368  
Since 1 July heating degree days 3144  
Cooling Degree Days 0 0  
Month to date cooling degree days 0  
Year to date cooling degree days 0  
Moisture  
Dew Point 29 °F    
Average Humidity 56    
Maximum Humidity 87    
Minimum Humidity 33    
Precipitation  
Precipitation 0.00 in 0.10 in 1.32 in (1985)
Month to date precipitation 1.23  
Year to date precipitation 4.28  
Snow  
Snow 0.00 in 0.30 in 9.60 in (2006)
Month to date snowfall 3.8  
Since 1 July snowfall 14.0  
Snow Depth -    
Sea Level Pressure  
Sea Level Pressure 29.94 in    
Wind  
Wind Speed 7 mph (WNW)    
Max Wind Speed 17 mph    
Max Gust Speed 25 mph    
Visibility 10 miles    
Events      
T = Trace of Precipitation, MM = Missing Value Source: NWS Daily Summary

Daily Weather History Graph

Daily Weather History Graph

Search for Another Location

Airport:

Trip Planner

Search our weather history database for the weather conditions in past years. The results will help you decide how hot, cold, wet, or windy it might be!

Date:

Astronomy

Feb. 12, 2013 Rise Set
Actual Time 7:01 AM EST 5:41 PM EST
Civil Twilight 6:34 AM EST 6:08 PM EST
Nautical Twilight 6:02 AM EST 6:40 PM EST
Astronomical Twilight 5:31 AM EST 7:11 PM EST
Moon 7:59 AM EST (2/12) 8:37 PM EST (2/12)
Length of Visible Light 11h 34m
Length of Day
10h 39m
Waxing Crescent, 7% of the Moon is Illuminated
Feb 12
Waxing Crescent
Feb 17
First Quarter
Feb 25
Full
Mar 4
Last Quarter
Mar 11
New

Hourly Weather History & Observations

Time (EST) Temp. Windchill Dew Point Humidity Pressure Visibility Wind Dir Wind Speed Gust Speed Precip Events Conditions
12:00 AM 44.6 °F 40.2 °F 35.6 °F 71% 29.82 in 10.0 mi WNW 8.1 mph - N/A   Clear
12:21 AM 42.8 °F 36.6 °F 33.8 °F 70% 29.83 in 10.0 mi NW 11.5 mph - N/A   Clear
12:42 AM 42.8 °F 38.0 °F 32.0 °F 66% 29.84 in 10.0 mi WNW 8.1 mph - N/A   Clear
1:00 AM 44.6 °F 40.7 °F 32.0 °F 61% 29.84 in 10.0 mi WNW 6.9 mph - N/A   Clear
1:21 AM 44.6 °F 41.4 °F 32.0 °F 61% 29.85 in 10.0 mi WNW 5.8 mph - N/A   Clear
1:42 AM 42.8 °F 40.1 °F 32.0 °F 66% 29.85 in 10.0 mi West 4.6 mph - N/A   Clear
2:00 AM 41.0 °F 37.1 °F 32.0 °F 70% 29.86 in 10.0 mi West 5.8 mph - N/A   Clear
2:21 AM 39.2 °F 33.6 °F 32.0 °F 75% 29.87 in 10.0 mi West 8.1 mph - N/A   Clear
2:42 AM 41.0 °F 34.7 °F 30.2 °F 65% 29.87 in 10.0 mi West 10.4 mph - N/A   Clear
3:00 AM 41.0 °F 34.7 °F 32.0 °F 70% 29.86 in 10.0 mi West 10.4 mph 17.3 mph N/A   Clear
3:21 AM 42.8 °F 37.5 °F 30.2 °F 61% 29.86 in 10.0 mi West 9.2 mph - N/A   Clear
4:00 AM 42.8 °F 38.0 °F 30.2 °F 61% 29.88 in 10.0 mi West 8.1 mph - N/A   Clear
4:21 AM 42.8 °F 34.8 °F 30.2 °F 61% 29.88 in 10.0 mi WNW 17.3 mph 24.2 mph N/A   Clear
4:42 AM 44.6 °F 38.8 °F 30.2 °F 57% 29.90 in 10.0 mi WNW 11.5 mph 23.0 mph N/A   Clear
5:00 AM 44.6 °F 39.7 °F 28.4 °F 53% 29.92 in 10.0 mi West 9.2 mph - N/A   Scattered Clouds
5:21 AM 42.8 °F 37.5 °F 30.2 °F 61% 29.93 in 10.0 mi West 9.2 mph 18.4 mph N/A   Mostly Cloudy
5:42 AM 42.8 °F 36.2 °F 28.4 °F 57% 29.92 in 10.0 mi West 12.7 mph 19.6 mph N/A   Overcast
6:03 AM 42.8 °F 38.0 °F 28.4 °F 57% 29.93 in 10.0 mi West 8.1 mph 16.1 mph N/A   Overcast
6:21 AM 42.8 °F 36.6 °F 28.4 °F 57% 29.93 in 10.0 mi West 11.5 mph - N/A   Overcast
6:42 AM 42.8 °F 37.0 °F 28.4 °F 57% 29.94 in 10.0 mi West 10.4 mph - N/A   Mostly Cloudy
7:03 AM 41.0 °F 35.2 °F 28.4 °F 61% 29.94 in 10.0 mi West 9.2 mph - N/A   Scattered Clouds
7:21 AM 41.0 °F 36.4 °F 28.4 °F 61% 29.95 in 10.0 mi West 6.9 mph - N/A   Scattered Clouds
8:03 AM 41.0 °F - 28.4 °F 61% 29.97 in 10.0 mi Calm Calm - N/A   Clear
8:21 AM 39.2 °F - 28.4 °F 65% 29.98 in 10.0 mi Calm Calm - N/A   Clear
8:42 AM 41.0 °F 38.0 °F 28.4 °F 61% 29.99 in 10.0 mi ESE 4.6 mph - N/A   Clear
9:03 AM 44.6 °F - 28.4 °F 53% 29.99 in 10.0 mi Calm Calm - N/A   Clear
9:21 AM 46.4 °F 42.9 °F 28.4 °F 50% 29.99 in 10.0 mi NNW 6.9 mph - N/A   Clear
9:42 AM 48.2 °F - 26.6 °F 43% 29.99 in 10.0 mi WNW 8.1 mph - N/A   Clear
10:03 AM 50.0 °F - 28.4 °F 43% 30.01 in 10.0 mi NW 9.2 mph 16.1 mph N/A   Clear
10:21 AM 50.0 °F - 26.6 °F 40% 30.02 in 10.0 mi NW 13.8 mph 18.4 mph N/A   Scattered Clouds
10:42 AM 50.0 °F - 26.6 °F 40% 30.02 in 10.0 mi WNW 11.5 mph 18.4 mph N/A   Clear
11:03 AM 51.8 °F - 26.6 °F 38% 30.02 in 10.0 mi NW 10.4 mph 18.4 mph N/A   Clear
11:21 AM 51.8 °F - 26.6 °F 38% 30.01 in 10.0 mi WNW 10.4 mph 20.7 mph N/A   Clear
11:42 AM 51.8 °F - 26.6 °F 38% 30.01 in 10.0 mi WNW 12.7 mph 21.9 mph N/A   Clear
12:03 PM 53.6 °F - 28.4 °F 38% 30.00 in 10.0 mi WNW 15.0 mph 25.3 mph N/A   Clear
12:21 PM 51.8 °F - 26.6 °F 38% 30.00 in 10.0 mi NW 11.5 mph 17.3 mph N/A   Clear
1:42 PM 53.6 °F - 26.6 °F 35% 29.97 in 10.0 mi NW 5.8 mph - N/A   Clear
2:03 PM 53.6 °F - 26.6 °F 35% 29.94 in 10.0 mi NW 10.4 mph - N/A   Clear
2:24 PM 53.6 °F - 26.6 °F 35% 29.94 in 10.0 mi NW 6.9 mph 16.1 mph N/A   Clear
2:42 PM 55.4 °F - 26.6 °F 33% 29.92 in 10.0 mi WNW 4.6 mph - N/A   Clear
3:03 PM 53.6 °F - 26.6 °F 35% 29.87 in 10.0 mi North 4.6 mph - N/A   Clear
3:24 PM 53.6 °F - 26.6 °F 35% 29.92 in 10.0 mi NW 10.4 mph - N/A   Clear
4:03 PM 53.6 °F - 26.6 °F 35% 29.96 in 10.0 mi West 8.1 mph - N/A   Clear
4:24 PM 53.6 °F - 26.6 °F 35% 29.95 in 10.0 mi WNW 6.9 mph - N/A   Clear
4:42 PM 53.6 °F - 24.8 °F 33% 29.95 in 10.0 mi WNW 3.5 mph - N/A   Clear
5:03 PM 51.8 °F - 24.8 °F 35% 29.94 in 10.0 mi West 6.9 mph - N/A   Clear
5:24 PM 50.0 °F - 26.6 °F 40% 29.96 in 10.0 mi West 4.6 mph - N/A   Clear
5:42 PM 48.2 °F - 24.8 °F 40% 29.96 in 10.0 mi NW 4.6 mph - N/A   Clear
6:03 PM 46.4 °F - 26.6 °F 46% 29.98 in 10.0 mi Calm Calm - N/A   Clear
6:24 PM 42.8 °F - 28.4 °F 57% 29.97 in 10.0 mi Calm Calm - N/A   Clear
6:42 PM 41.0 °F 38.0 °F 28.4 °F 61% 29.98 in 10.0 mi ESE 4.6 mph - N/A   Clear
7:03 PM 41.0 °F - 28.4 °F 61% 29.99 in 10.0 mi Calm Calm - N/A   Clear
7:24 PM 42.8 °F 40.1 °F 28.4 °F 57% 29.98 in 10.0 mi NE 4.6 mph - N/A   Clear
7:42 PM 41.0 °F 39.0 °F 28.4 °F 61% 29.98 in 10.0 mi ENE 3.5 mph - N/A   Clear
8:03 PM 37.4 °F 34.9 °F 28.4 °F 70% 29.97 in 10.0 mi NE 3.5 mph - N/A   Clear
8:24 PM 41.0 °F - 28.4 °F 61% 29.97 in 10.0 mi Calm Calm - N/A   Clear
8:42 PM 41.0 °F 38.0 °F 30.2 °F 65% 29.97 in 10.0 mi ENE 4.6 mph - N/A   Clear
9:03 PM 37.4 °F 33.8 °F 30.2 °F 75% 29.96 in 10.0 mi ENE 4.6 mph - N/A   Clear
9:24 PM 37.4 °F 33.8 °F 30.2 °F 75% 29.98 in 10.0 mi ENE 4.6 mph - N/A   Clear
9:42 PM 35.6 °F 32.8 °F 30.2 °F 81% 29.98 in 10.0 mi East 3.5 mph - N/A   Clear
10:03 PM 35.6 °F - 30.2 °F 81% 29.98 in 10.0 mi Calm Calm - N/A   Clear
10:24 PM 35.6 °F 32.8 °F 28.4 °F 75% 29.99 in 10.0 mi East 3.5 mph - N/A   Clear
10:42 PM 35.6 °F - 28.4 °F 75% 29.98 in 10.0 mi Calm Calm - N/A   Clear
11:03 PM 35.6 °F - 28.4 °F 75% 29.99 in 10.0 mi Calm Calm - N/A   Clear
11:24 PM 33.8 °F - 28.4 °F 81% 29.98 in 10.0 mi Calm Calm - N/A   Clear
11:45 PM 32.0 °F - 28.4 °F 87% 29.98 in 10.0 mi Calm Calm - N/A   Clear